Three Rivers, MI

12:32 AM EST on December 14, 2017 (GMT -0500)
Three Rivers Municipal-Haines

Weather History for KHAI - June, 2013

Change the Weather History Date:

Wednesday, June 5, 2013

  Actual Average Record
Temperature  
Mean Temperature 64 °F -  
Max Temperature 74 °F 77 °F 93 °F (1971)
Min Temperature 55 °F 53 °F 36 °F (1990)
Growing Degree Days 14 (Base 50)    
Moisture  
Dew Point 47 °F    
Average Humidity 54    
Maximum Humidity 77    
Minimum Humidity 35    
Precipitation  
Precipitation 0.00 in - - ()
Sea Level Pressure  
Sea Level Pressure 30.07 in    
Wind  
Wind Speed 6 mph (East)    
Max Wind Speed 12 mph    
Max Gust Speed 17 mph    
Visibility 10 miles    
Events      
Averages and records for this station are not official NWS values.
T = Trace of Precipitation, MM = Missing Value Source: NWS Daily Summary

Daily Weather History Graph

Daily Weather History Graph

Search for Another Location

Airport or City:

Trip Planner

Search our weather history database for the weather conditions in past years. The results will help you decide how hot, cold, wet, or windy it might be!

Date:

Astronomy

Jun. 05, 2013 Rise Set
Actual Time 6:07 AM EDT 9:14 PM EDT
Civil Twilight 5:33 AM EDT 9:48 PM EDT
Nautical Twilight 4:50 AM EDT 10:31 PM EDT
Astronomical Twilight 3:58 AM EDT 11:23 PM EDT
Moon 4:13 AM EDT (6/5) 6:38 PM EDT (6/5)
Length of Visible Light 16h 14m
Length of Day
15h 06m
Waning Crescent, 8% of the Moon is Illuminated
Jun 5
Waning Crescent
Jun 8
New
Jun 16
First Quarter
Jun 23
Full
Jun 30
Last Quarter

Hourly Weather History & Observations

Time (EDT) Temp. Dew Point Humidity Pressure Visibility Wind Dir Wind Speed Gust Speed Precip Events Conditions
12:15 AM 61.7 °F 49.3 °F 64% 30.14 in 10.0 mi East 8.1 mph - N/A   Clear
12:34 AM 61.3 °F 48.7 °F 63% 30.13 in 10.0 mi ESE 4.6 mph - N/A   Clear
12:54 AM 60.8 °F 48.7 °F 64% 30.14 in 10.0 mi ESE 6.9 mph - N/A   Clear
1:14 AM 61.0 °F 48.7 °F 64% 30.14 in 10.0 mi ESE 9.2 mph - N/A   Clear
1:34 AM 60.4 °F 48.4 °F 64% 30.14 in 10.0 mi ESE 8.1 mph - N/A   Clear
1:54 AM 60.1 °F 47.7 °F 64% 30.14 in 10.0 mi ESE 6.9 mph - N/A   Clear
2:14 AM 59.9 °F 46.4 °F 61% 30.14 in 10.0 mi ESE 6.9 mph - N/A   Clear
2:34 AM 59.4 °F 45.5 °F 60% 30.13 in 10.0 mi ESE 5.8 mph - N/A   Clear
2:54 AM 59.4 °F 44.8 °F 58% 30.14 in 10.0 mi East 4.6 mph - N/A   Clear
3:14 AM 58.3 °F 44.6 °F 60% 30.13 in 10.0 mi East 5.8 mph - N/A   Clear
3:34 AM 58.1 °F 44.8 °F 61% 30.13 in 10.0 mi East 4.6 mph - N/A   Clear
3:55 AM 57.2 °F 45.3 °F 65% 30.14 in 10.0 mi East 3.5 mph - N/A   Clear
4:14 AM 57.2 °F 45.1 °F 64% 30.14 in 10.0 mi Calm Calm - N/A   Clear
4:34 AM 56.8 °F 45.5 °F 66% 30.14 in 10.0 mi East 3.5 mph - N/A   Clear
4:55 AM 55.0 °F 46.4 °F 73% 30.14 in 10.0 mi East 4.6 mph - N/A   Clear
5:14 AM 55.8 °F 46.8 °F 72% 30.14 in 10.0 mi East 5.8 mph - N/A   Clear
5:34 AM 55.6 °F 46.8 °F 72% 30.13 in 10.0 mi East 4.6 mph - N/A   Clear
5:54 AM 55.8 °F 47.1 °F 73% 30.12 in 10.0 mi ESE 5.8 mph - N/A   Clear
6:14 AM 56.3 °F 47.3 °F 72% 30.13 in 10.0 mi ESE 3.5 mph - N/A   Clear
6:34 AM 56.3 °F 47.7 °F 73% 30.13 in 10.0 mi East 3.5 mph - N/A   Clear
6:54 AM 56.3 °F 48.2 °F 74% 30.15 in 10.0 mi Calm Calm - N/A   Scattered Clouds
7:14 AM 55.9 °F 48.4 °F 76% 30.14 in 10.0 mi ESE 3.5 mph - N/A   Scattered Clouds
7:34 AM 56.1 °F 48.9 °F 77% 30.15 in 10.0 mi Calm Calm - N/A   Clear
7:54 AM 58.1 °F 49.1 °F 72% 30.15 in 10.0 mi East 3.5 mph - N/A   Clear
8:14 AM 59.2 °F 49.8 °F 71% 30.15 in 10.0 mi East 6.9 mph - N/A   Scattered Clouds
8:35 AM 59.9 °F 49.8 °F 69% 30.15 in 10.0 mi East 8.1 mph - N/A   Clear
8:54 AM 60.1 °F 49.1 °F 67% 30.14 in 10.0 mi East 6.9 mph - N/A   Clear
9:14 AM 61.5 °F 49.6 °F 65% 30.13 in 10.0 mi East 6.9 mph - N/A   Clear
9:35 AM 62.4 °F 49.5 °F 63% 30.13 in 10.0 mi ESE 8.1 mph - N/A   Clear
9:54 AM 63.1 °F 48.7 °F 59% 30.11 in 10.0 mi East 9.2 mph - N/A   Clear
10:14 AM 64.4 °F 48.4 °F 56% 30.10 in 10.0 mi ESE 9.2 mph - N/A   Clear
10:35 AM 65.3 °F 48.0 °F 54% 30.10 in 10.0 mi ESE 9.2 mph - N/A   Clear
10:54 AM 66.0 °F 48.6 °F 53% 30.10 in 10.0 mi ESE 8.1 mph - N/A   Clear
11:14 AM 66.6 °F 45.7 °F 47% 30.10 in 10.0 mi SE 10.4 mph 17.3 mph N/A   Clear
11:34 AM 68.0 °F 48.0 °F 49% 30.09 in 10.0 mi East 9.2 mph 16.1 mph N/A   Clear
11:54 AM 68.5 °F 47.5 °F 47% 30.08 in 10.0 mi SE 9.2 mph - N/A   Clear
12:14 PM 68.5 °F 44.4 °F 42% 30.08 in 10.0 mi East 4.6 mph 9.2 mph N/A   Clear
12:34 PM 70.0 °F 46.2 °F 43% 30.08 in 10.0 mi East 8.1 mph - N/A   Clear
12:54 PM 69.8 °F 44.8 °F 41% 30.07 in 10.0 mi East 5.8 mph - N/A   Clear
1:15 PM 70.2 °F 44.6 °F 40% 30.07 in 10.0 mi SSE 6.9 mph - N/A   Clear
1:34 PM 71.2 °F 45.0 °F 39% 30.07 in 10.0 mi SE 8.1 mph - N/A   Clear
1:54 PM 71.4 °F 44.6 °F 38% 30.06 in 10.0 mi SE 8.1 mph - N/A   Clear
2:14 PM 71.6 °F 44.4 °F 38% 30.06 in 10.0 mi Calm Calm - N/A   Clear
2:34 PM 72.3 °F 46.2 °F 39% 30.05 in 10.0 mi NE 6.9 mph - N/A   Clear
2:55 PM 72.7 °F 46.0 °F 39% 30.05 in 7.0 mi NE 5.8 mph - N/A   Scattered Clouds
3:14 PM 72.3 °F 45.9 °F 39% 30.04 in 10.0 mi ENE 4.6 mph - N/A   Clear
3:34 PM 73.2 °F 47.5 °F 40% 30.02 in 10.0 mi East 8.1 mph - N/A   Clear
3:55 PM 73.8 °F 47.8 °F 40% 30.02 in 10.0 mi East 8.1 mph - N/A   Clear
4:14 PM 74.1 °F 47.1 °F 38% 30.01 in 10.0 mi East 9.2 mph - N/A   Scattered Clouds
4:34 PM 73.8 °F 46.9 °F 38% 30.01 in 10.0 mi ESE 6.9 mph - N/A   Scattered Clouds
4:54 PM 73.6 °F 44.2 °F 35% 30.00 in 10.0 mi NE 5.8 mph - N/A   Scattered Clouds
5:14 PM 73.2 °F 46.9 °F 39% 30.00 in 10.0 mi Calm Calm - N/A   Mostly Cloudy
5:34 PM 72.5 °F 45.7 °F 38% 29.99 in 10.0 mi East 4.6 mph - N/A   Mostly Cloudy
5:54 PM 72.5 °F 45.9 °F 39% 29.98 in 10.0 mi East 4.6 mph - N/A   Mostly Cloudy
6:14 PM 72.5 °F 46.9 °F 40% 29.98 in 10.0 mi East 3.5 mph - N/A   Scattered Clouds
6:34 PM 72.9 °F 47.3 °F 40% 29.98 in 10.0 mi NE 3.5 mph - N/A   Scattered Clouds
6:54 PM 71.6 °F 45.9 °F 40% 29.97 in 10.0 mi NE 8.1 mph - N/A   Scattered Clouds
7:14 PM 70.9 °F 46.8 °F 42% 29.97 in 10.0 mi North 6.9 mph - N/A   Overcast
7:34 PM 68.9 °F 45.3 °F 43% 29.96 in 10.0 mi NE 5.8 mph 17.3 mph N/A   Mostly Cloudy
7:54 PM 68.0 °F 45.0 °F 43% 29.97 in 10.0 mi NE 10.4 mph - N/A   Scattered Clouds
8:14 PM 67.5 °F 44.8 °F 44% 29.97 in 10.0 mi NE 8.1 mph - N/A   Mostly Cloudy
8:34 PM 67.1 °F 44.4 °F 44% 29.97 in 10.0 mi ENE 10.4 mph - N/A   Scattered Clouds
8:54 PM 66.2 °F 44.8 °F 46% 29.97 in 10.0 mi ENE 6.9 mph - N/A   Scattered Clouds
9:14 PM 65.1 °F 45.7 °F 49% 29.97 in 10.0 mi ENE 11.5 mph - N/A   Clear
9:34 PM 64.2 °F 46.4 °F 52% 29.97 in 10.0 mi ENE 9.2 mph - N/A   Clear
9:55 PM 64.2 °F 46.8 °F 53% 29.97 in 10.0 mi ENE 6.9 mph - N/A   Mostly Cloudy
10:14 PM 63.7 °F 46.9 °F 54% 29.97 in 10.0 mi NE 8.1 mph - N/A   Scattered Clouds
10:34 PM 63.0 °F 47.5 °F 57% 29.97 in 10.0 mi East 8.1 mph - N/A   Clear
10:55 PM 63.1 °F 47.8 °F 57% 29.98 in 10.0 mi ENE 6.9 mph - N/A   Mostly Cloudy
11:14 PM 63.0 °F 48.4 °F 59% 29.98 in 10.0 mi NE 5.8 mph - N/A   Mostly Cloudy
11:34 PM 62.6 °F 48.7 °F 60% 29.98 in 10.0 mi ENE 5.8 mph - N/A   Scattered Clouds
11:55 PM 62.4 °F 48.4 °F 60% 29.98 in 10.0 mi ENE 4.6 mph - N/A   Scattered Clouds